SCP
0 0 0 0 0 0 0 0 0 0 0 0 0 0 0 0 0 0 0 0 0 0 0 0 0 0 0 0 0 0 0 0
0 0 0 0 0 0 0 0 0 0 0 0 0 0 0 0 -0 -0 -0 -0 -0 0 0 0 0 0 0 0 0 0 0 0
0 0 0 0 0 0 0 0 0 0 0 -0 -0 -0 -0 0 0 0 0 -0 -0 0 0 0 0 0 0 0 0 0 0 0
-0 -0 -0 0 0 0 0 0 0 0 0 0 -0 -0 -0 -0 0 0 0 0 0 -0 -0 0 0 0 0 0 0 0 0 0
0 0 0 0 0 0 0 0 0 0 0 0 -0 0 -0 0 0 0 0 0 0 0 0 0 0 0 0 0 0 0 0 0
0 0 0 0 0 0 0 0 0 0 0 0 0 0 0 0 0 0 0 0 0 0 0 -0 0 0 0 0 0 0 0 0
0 0 0 0 0 0 0 0 0 0 0 0 0 0 0 0 -0 0 0 0 0 0 -0 -0 -0 -0 0 0 0 1 0 1
0 0 0 0 0 0 0 0 0 0 0 0 0 0 0 0 -0 -0 0 0 0 0 -0 -0 -0 0 -0 0 0 1 0 0
0 0 0 0 0 0 0 0 0 0 0 0 0 0 0 0 0 0 0 0 0 0 0 0 -0 0 0 0 0 0 0 0
0 0 0 0 0 0 0 0 0 0 0 0 0 0 0 0 0 0 0 0 0 0 0 0 0 0 0 0 0 0 0 0
0 0 0 0 0 0 0 0 0 0 0 0 0 0 0 0 0 0 0 0 0 0 0 0 0 0 0 0 0 0 0 0
0 0 0 0 0 0 0 0 0 0 0 0 0 0 0 0 0 0 0 0 0 0 0 0 0 0 0 0 0 -0 0 0
0 0 0 0 0 0 0 0 0 0 0 0 0 0 0 0 0 0 0 -0 -0 -0 -0 -0 0 0 0 0 0 0 0 0
0 0 0 0 0 0 0 0 0 0 0 0 0 0 0 0 0 0 0 0 -0 -0 0 -0 0 0 0 0 0 0 0 -0
0 0 0 0 0 0 0 0 0 0 0 0 0 0 0 0 -0 -0 -0 0 -0 -0 -0 0 0 -0 0 0 0 0 -0 -0
0 0 0 0 0 0 0 0 0 0 0 -0 -0 0 0 -0 0 -0 -0 -0 0 0 0 0 0 0 0 0 0 0 -0 0
0 0 0 0 0 0 0 0 0 0 0 0 0 0 0 0 -0 0 -0 -0 -0 0 0 0 0 0 0 0 0 0 0 0
0 0 0 0 0 0 0 0 0 0 0 0 0 0 0 0 0 0 0 0 0 -0 -0 0 0 0 0 0 0 0 0 0
0 0 0 0 0 0 0 0 0 0 0 0 0 0 0 0 0 0 0 0 0 0 -0 -0 0 -0 0 0 0 0 0 0
Wind_Speed_500mb
8 13 10 7 4 11 9 3 9 7 16 18 5 15 28 40 62 76 78 84 91 78 86 99 100 101 98 93 84 76 74 79
14 17 25 15 9 8 7 5 5 10 8 11 23 29 12 14 41 51 72 80 89 105 96 80 90 94 99 97 90 80 79 78
8 11 7 15 17 12 2 7 9 3 10 8 13 11 21 21 59 64 77 81 98 93 88 101 84 81 93 102 98 88 86 83
6 12 6 9 12 10 8 14 3 7 8 10 13 18 37 54 27 45 59 77 79 94 82 85 104 93 85 92 101 97 89 88
23 13 16 13 19 9 5 6 4 6 9 25 38 35 39 48 35 31 46 72 81 79 66 61 78 88 88 81 91 97 96 93
9 7 8 13 24 17 10 3 10 6 27 26 30 26 37 47 72 11 67 62 59 69 54 39 25 73 84 81 84 92 92 98
6 11 16 19 26 25 13 9 4 13 15 19 19 17 25 31 77 67 30 11 17 41 61 67 56 39 73 72 77 89 91 93
11 14 16 18 22 23 22 12 10 13 10 24 32 43 41 41 40 51 41 33 24 17 34 60 70 51 47 34 65 83 85 95
4 7 11 15 10 9 23 11 5 5 6 28 23 36 45 50 40 32 33 27 37 43 45 20 12 39 45 71 46 67 67 82
6 8 5 14 11 12 5 24 15 7 16 24 31 16 60 64 47 39 38 32 26 29 30 34 7 15 28 52 67 60 60 54
6 7 13 18 15 12 12 11 13 8 21 35 47 6 37 55 49 41 38 28 33 36 35 38 34 22 32 26 31 47 46 47
6 7 10 5 15 36 9 7 17 22 23 32 44 8 4 43 39 37 32 30 31 28 28 31 30 18 23 24 33 45 49 53
7 9 12 16 35 24 5 4 23 23 28 27 12 26 48 36 30 24 28 30 36 35 33 32 33 30 25 7 39 35 64 67
6 4 12 31 8 5 14 17 27 28 37 39 33 41 48 39 26 24 28 34 35 38 37 34 31 27 26 21 27 29 25 72
9 4 4 16 2 13 21 32 34 41 38 42 45 41 42 43 40 30 30 36 31 35 42 37 33 31 34 24 19 37 62 57
8 2 4 15 16 21 24 29 44 45 44 42 50 47 48 46 45 43 38 38 32 31 35 33 28 35 35 39 39 39 36 45
9 27 29 12 22 31 31 39 39 42 45 42 46 50 49 50 45 45 44 34 26 30 28 26 28 26 40 35 47 51 42 37
12 16 11 22 24 27 27 34 38 41 43 42 43 49 50 52 46 40 42 36 33 29 35 24 20 26 34 37 40 42 49 39
13 23 20 29 26 21 28 39 43 54 38 38 43 49 55 55 51 39 40 41 37 39 38 40 31 26 26 35 37 31 34 38
Wind_Direction_500mb
23 347 356 293 86 185 118 75 81 262 311 315 68 279 245 185 184 193 198 193 202 200 199 206 209 210 212 214 218 224 228 225
317 31 23 87 293 5 18 112 172 296 323 246 3 349 307 186 209 185 187 192 195 196 200 199 210 214 216 219 221 227 229 230
33 56 355 356 15 359 94 128 145 153 264 78 87 28 1 276 217 201 199 186 184 188 199 202 205 213 220 221 222 226 230 231
245 268 250 127 78 48 49 316 326 132 278 10 29 4 17 23 262 215 196 191 194 197 203 206 205 209 215 221 224 226 231 233
341 12 21 37 6 28 259 348 325 120 266 9 26 29 32 15 2 220 198 205 214 214 217 205 203 208 212 220 229 229 229 233
183 233 269 322 334 347 109 9 327 271 330 351 15 9 4 20 22 252 207 206 213 220 219 229 278 224 213 219 230 230 230 233
353 11 352 340 342 335 326 239 184 294 318 325 354 346 21 38 55 59 78 118 241 250 256 257 267 277 212 224 228 230 230 237
360 35 10 323 309 308 304 348 310 334 336 356 0 34 24 36 60 85 66 66 35 323 272 265 259 257 237 232 222 225 233 238
266 65 7 308 269 294 294 338 88 89 295 0 5 22 30 21 36 42 63 65 44 24 16 340 207 230 241 230 200 208 223 235
205 74 213 244 312 272 302 64 59 37 9 3 344 3 43 33 33 36 36 33 44 32 12 9 274 258 262 222 228 220 221 232
167 182 277 298 286 244 172 88 39 7 1 356 346 28 44 23 23 27 27 22 11 20 11 349 353 319 302 254 223 238 236 237
137 153 243 224 332 325 315 144 11 11 4 358 345 30 291 353 4 12 29 12 358 359 350 346 355 337 304 245 213 226 222 219
207 210 272 356 315 318 180 261 351 355 349 349 336 302 309 329 346 355 5 8 353 356 1 351 333 338 333 254 237 263 223 224
328 243 244 4 343 60 347 308 322 323 321 316 316 314 312 322 327 343 336 340 345 347 352 350 342 336 327 316 263 256 237 229
211 290 16 349 324 310 320 311 311 313 310 303 301 297 305 303 317 317 322 322 328 337 336 333 341 341 318 311 304 253 254 244
359 153 307 288 276 311 311 307 306 301 301 295 292 292 288 292 291 305 312 317 320 322 331 343 326 329 328 311 307 304 277 251
252 284 315 251 268 313 307 309 310 302 294 296 286 282 282 287 285 288 295 304 304 309 307 322 321 311 309 308 299 301 298 283
216 199 219 274 318 315 296 316 319 314 296 290 284 278 280 282 277 278 284 286 280 287 296 308 305 299 293 300 293 299 301 296
214 211 253 286 304 338 331 338 318 321 299 297 286 279 273 275 270 267 269 274 274 282 294 300 301 298 283 277 279 290 297 290
Wind_Speed_850mb
8 13 10 7 4 11 9 3 9 7 16 18 5 15 28 40 62 76 78 84 91 78 86 99 100 101 98 93 84 76 74 79
14 17 25 15 9 8 7 5 5 10 8 11 23 29 12 14 41 51 72 80 89 105 96 80 90 94 99 97 90 80 79 78
8 11 7 15 17 12 2 7 9 3 10 8 13 11 21 21 59 64 77 81 98 93 88 101 84 81 93 102 98 88 86 83
6 12 6 9 12 10 8 14 3 7 8 10 13 18 37 54 27 45 59 77 79 94 82 85 104 93 85 92 101 97 89 88
23 13 16 13 19 9 5 6 4 6 9 25 38 35 39 48 35 31 46 72 81 79 66 61 78 88 88 81 91 97 96 93
9 7 8 13 24 17 10 3 10 6 27 26 30 26 37 47 72 11 67 62 59 69 54 39 25 73 84 81 84 92 92 98
6 11 16 19 26 25 13 9 4 13 15 19 19 17 25 31 77 67 30 11 17 41 61 67 56 39 73 72 77 89 91 93
11 14 16 18 22 23 22 12 10 13 10 24 32 43 41 41 40 51 41 33 24 17 34 60 70 51 47 34 65 83 85 95
4 7 11 15 10 9 23 11 5 5 6 28 23 36 45 50 40 32 33 27 37 43 45 20 12 39 45 71 46 67 67 82
6 8 5 14 11 12 5 24 15 7 16 24 31 16 60 64 47 39 38 32 26 29 30 34 7 15 28 52 67 60 60 54
6 7 13 18 15 12 12 11 13 8 21 35 47 6 37 55 49 41 38 28 33 36 35 38 34 22 32 26 31 47 46 47
6 7 10 5 15 36 9 7 17 22 23 32 44 8 4 43 39 37 32 30 31 28 28 31 30 18 23 24 33 45 49 53
7 9 12 16 35 24 5 4 23 23 28 27 12 26 48 36 30 24 28 30 36 35 33 32 33 30 25 7 39 35 64 67
6 4 12 31 8 5 14 17 27 28 37 39 33 41 48 39 26 24 28 34 35 38 37 34 31 27 26 21 27 29 25 72
9 4 4 16 2 13 21 32 34 41 38 42 45 41 42 43 40 30 30 36 31 35 42 37 33 31 34 24 19 37 62 57
8 2 4 15 16 21 24 29 44 45 44 42 50 47 48 46 45 43 38 38 32 31 35 33 28 35 35 39 39 39 36 45
9 27 29 12 22 31 31 39 39 42 45 42 46 50 49 50 45 45 44 34 26 30 28 26 28 26 40 35 47 51 42 37
12 16 11 22 24 27 27 34 38 41 43 42 43 49 50 52 46 40 42 36 33 29 35 24 20 26 34 37 40 42 49 39
13 23 20 29 26 21 28 39 43 54 38 38 43 49 55 55 51 39 40 41 37 39 38 40 31 26 26 35 37 31 34 38
Wind_Direction_850mb
23 347 356 293 86 185 118 75 81 262 311 315 68 279 245 185 184 193 198 193 202 200 199 206 209 210 212 214 218 224 228 225
317 31 23 87 293 5 18 112 172 296 323 246 3 349 307 186 209 185 187 192 195 196 200 199 210 214 216 219 221 227 229 230
33 56 355 356 15 359 94 128 145 153 264 78 87 28 1 276 217 201 199 186 184 188 199 202 205 213 220 221 222 226 230 231
245 268 250 127 78 48 49 316 326 132 278 10 29 4 17 23 262 215 196 191 194 197 203 206 205 209 215 221 224 226 231 233
341 12 21 37 6 28 259 348 325 120 266 9 26 29 32 15 2 220 198 205 214 214 217 205 203 208 212 220 229 229 229 233
183 233 269 322 334 347 109 9 327 271 330 351 15 9 4 20 22 252 207 206 213 220 219 229 278 224 213 219 230 230 230 233
353 11 352 340 342 335 326 239 184 294 318 325 354 346 21 38 55 59 78 118 241 250 256 257 267 277 212 224 228 230 230 237
360 35 10 323 309 308 304 348 310 334 336 356 0 34 24 36 60 85 66 66 35 323 272 265 259 257 237 232 222 225 233 238
266 65 7 308 269 294 294 338 88 89 295 0 5 22 30 21 36 42 63 65 44 24 16 340 207 230 241 230 200 208 223 235
205 74 213 244 312 272 302 64 59 37 9 3 344 3 43 33 33 36 36 33 44 32 12 9 274 258 262 222 228 220 221 232
167 182 277 298 286 244 172 88 39 7 1 356 346 28 44 23 23 27 27 22 11 20 11 349 353 319 302 254 223 238 236 237
137 153 243 224 332 325 315 144 11 11 4 358 345 30 291 353 4 12 29 12 358 359 350 346 355 337 304 245 213 226 222 219
207 210 272 356 315 318 180 261 351 355 349 349 336 302 309 329 346 355 5 8 353 356 1 351 333 338 333 254 237 263 223 224
328 243 244 4 343 60 347 308 322 323 321 316 316 314 312 322 327 343 336 340 345 347 352 350 342 336 327 316 263 256 237 229
211 290 16 349 324 310 320 311 311 313 310 303 301 297 305 303 317 317 322 322 328 337 336 333 341 341 318 311 304 253 254 244
359 153 307 288 276 311 311 307 306 301 301 295 292 292 288 292 291 305 312 317 320 322 331 343 326 329 328 311 307 304 277 251
252 284 315 251 268 313 307 309 310 302 294 296 286 282 282 287 285 288 295 304 304 309 307 322 321 311 309 308 299 301 298 283
216 199 219 274 318 315 296 316 319 314 296 290 284 278 280 282 277 278 284 286 280 287 296 308 305 299 293 300 293 299 301 296
214 211 253 286 304 338 331 338 318 321 299 297 286 279 273 275 270 267 269 274 274 282 294 300 301 298 283 277 279 290 297 290